Date,TemperatureHighF,TemperatureAvgF,TemperatureLowF,DewpointHighF,DewpointAvgF,DewpointLowF,HumidityHigh,HumidityAvg,HumidityLow,PressureMaxIn,PressureMinIn,WindSpeedMaxMPH,WindSpeedAvgMPH,GustSpeedMaxMPH,PrecipitationSumIn
2013-1-1,32.6,27.5,14.0,27.5,15.0,0.8,85,60,43,29.90,29.66,7,2,24,0.00
2013-1-2,26.1,15.1,5.7,17.0,3.3,-11.1,77,60,44,30.08,29.86,6,2,15,0.00
2013-1-3,22.9,10.8,-2.7,7.4,-4.3,-11.6,75,53,25,30.11,29.95,4,0,10,0.00
2013-1-4,32.8,20.7,8.7,29.8,14.5,3.0,91,77,55,29.95,29.76,4,1,17,0.00
2013-1-5,36.7,28.9,17.8,33.8,23.1,12.7,89,79,63,30.23,29.79,8,1,21,0.00
2013-1-6,37.0,28.4,18.3,34.3,24.6,12.9,91,85,72,30.18,29.89,5,0,13,0.00
2013-1-7,33.4,25.9,15.9,30.8,21.2,10.5,91,83,61,30.36,29.91,7,1,16,0.00
2013-1-8,40.3,26.3,13.7,34.9,20.1,9.0,90,78,51,30.33,30.22,4,0,13,0.00
2013-1-9,40.9,30.0,17.7,35.6,25.2,13.7,92,83,51,30.38,29.94,6,1,21,0.00
2013-1-10,44.2,39.2,29.1,26.1,20.3,16.9,69,47,33,30.50,29.98,11,4,25,0.00
2013-1-11,38.0,23.4,23.6,31.1,-13.8,-99.9,92,53,54,30.50,30.19,2,0,6,0.00
2013-1-12,39.8,35.8,32.6,37.9,33.9,30.5,93,93,92,30.19,30.09,1,0,2,0.00
2013-1-13,45.8,40.9,35.6,43.9,39.1,33.8,93,93,93,30.11,29.93,3,0,9,0.00
2013-1-14,57.2,45.4,37.5,50.5,37.0,23.0,93,75,42,30.22,29.82,8,1,21,0.00
2013-1-15,41.9,34.8,27.9,24.8,22.1,18.6,80,61,41,30.29,30.20,5,0,10,0.00
2013-1-16,31.9,30.4,28.4,29.0,26.3,22.5,89,85,77,30.22,29.78,1,0,4,0.00
2013-1-17,38.9,29.3,22.6,35.6,25.2,9.7,91,85,51,30.07,29.78,7,1,18,0.00
2013-1-18,25.3,18.1,12.5,11.0,-2.4,-99.9,60,43,25,30.40,30.02,8,2,20,0.00
2013-1-19,41.0,32.3,18.3,36.8,20.9,-99.9,90,65,41,30.33,29.82,6,2,20,0.00
2013-1-20,51.0,38.4,26.3,28.2,19.5,5.2,66,48,24,29.88,29.48,10,4,29,0.00
2013-1-21,26.3,22.2,16.1,17.4,3.6,-99.9,83,49,30,30.05,29.76,7,1,24,0.00
2013-1-22,23.2,17.9,9.0,16.7,3.7,-6.8,84,56,28,30.04,29.73,8,2,20,0.00
2013-1-23,13.0,7.5,-0.3,-3.2,-14.1,-24.1,63,38,18,30.10,30.03,9,2,25,0.00
2013-1-24,17.0,8.2,-1.5,-11.1,-17.8,-21.7,59,32,17,30.20,30.03,9,2,22,0.00
2013-1-25,21.9,10.9,6.2,-13.3,-23.1,-99.9,39,26,15,30.28,30.12,8,2,17,0.00
2013-1-26,23.0,15.4,8.5,7.2,-5.0,-17.9,80,45,17,30.20,29.98,7,2,17,0.00
2013-1-27,28.5,16.7,9.9,-0.3,-4.5,-10.4,61,41,19,30.38,30.19,7,2,17,0.00
2013-1-28,28.1,21.4,13.5,20.2,9.2,-1.7,85,61,31,30.42,29.99,1,0,8,0.00
2013-1-29,32.4,27.8,20.0,29.5,24.0,15.9,91,85,68,30.16,29.99,1,0,4,0.00
2013-1-30,57.7,41.4,31.3,53.7,38.2,-99.9,93,92,78,30.11,29.39,8,1,20,0.00
2013-1-31,60.9,45.7,28.8,54.3,30.3,8.6,85,57,28,29.53,28.89,14,8,34,0.34
2013-2-1,31.2,26.5,20.7,13.9,1.9,-5.2,56,35,21,30.04,29.53,12,4,29,0.00
2013-2-2,28.5,22.8,13.5,7.9,-1.5,-5.8,55,35,24,30.20,30.00,6,1,17,0.00
2013-2-3,26.1,23.4,18.0,17.9,15.2,8.2,79,71,49,30.01,29.69,3,0,11,0.00
2013-2-4,28.7,22.6,17.4,16.6,2.5,-6.7,78,45,22,29.89,29.68,12,4,29,0.00
2013-2-5,29.4,23.3,17.5,15.9,4.5,-1.5,71,45,31,29.99,29.89,4,0,9,0.00
2013-2-6,37.2,28.3,21.3,20.7,11.3,-4.1,80,53,26,30.26,29.88,10,2,23,0.01
2013-2-7,29.4,22.3,14.3,-1.2,-8.4,-16.0,49,26,17,30.50,30.26,7,1,14,0.00
2013-2-8,23.8,20.3,16.6,13.9,9.8,-9.8,79,66,22,30.46,29.68,5,1,21,0.00
2013-2-9,20.3,17.2,14.0,14.2,8.1,-4.8,80,68,43,30.17,29.62,13,7,30,0.00
2013-2-10,39.2,23.3,10.2,6.2,-5.6,-17.5,59,32,8,30.36,30.17,8,1,18,0.04
2013-2-11,31.5,24.6,14.3,27.5,17.4,3.2,85,74,57,30.31,29.57,1,0,4,0.00
2013-2-12,42.6,36.5,31.0,30.3,24.4,20.6,86,63,43,29.82,29.56,13,2,24,0.00
2013-2-13,41.9,34.1,26.4,21.5,17.9,14.1,70,52,33,29.82,29.69,5,1,14,0.00
2013-2-14,44.5,33.3,23.6,19.6,16.1,10.8,71,52,27,29.94,29.67,7,1,15,0.00
2013-2-15,52.3,36.7,23.5,26.8,21.9,16.1,81,58,29,29.95,29.84,9,1,24,0.00
2013-2-16,38.8,33.3,27.3,28.5,20.7,7.8,84,62,38,29.92,29.71,7,1,16,0.00
2013-2-17,27.3,20.6,15.3,12.4,0.1,-8.4,74,42,26,29.71,29.37,16,8,35,0.00
2013-2-18,29.8,21.1,13.3,-4.3,-10.9,-99.9,40,26,11,30.11,29.65,16,6,39,0.00
2013-2-19,45.2,33.5,19.9,36.4,14.8,-4.7,85,49,24,30.13,29.54,7,1,14,0.00
2013-2-20,37.3,31.3,25.5,33.2,14.2,2.6,85,51,28,29.73,29.49,12,5,26,0.00
2013-2-21,31.8,26.3,22.9,9.2,5.4,1.3,52,41,31,30.00,29.72,13,6,29,0.00
2013-2-22,40.3,31.0,19.4,20.0,13.5,8.3,74,50,27,30.36,30.18,5,1,15,0.00
2013-2-23,37.0,32.9,27.9,28.3,23.6,18.9,84,69,58,30.30,29.90,5,1,11,0.00
2013-2-24,33.7,32.6,30.9,29.7,28.5,26.6,85,85,84,29.90,29.69,3,0,8,0.00
2013-2-25,36.3,32.7,28.4,30.4,27.8,24.2,85,82,75,30.20,29.86,2,0,7,0.00
2013-2-26,41.3,34.8,29.1,31.5,25.2,21.9,85,69,51,30.31,30.15,4,0,9,0.00
2013-2-27,40.0,35.8,32.9,35.1,30.5,24.4,85,81,65,30.14,29.56,9,3,22,0.00
2013-2-28,44.9,37.0,32.4,31.3,30.0,28.4,85,76,58,29.60,29.50,4,0,9,0.00
2013-3-1,39.5,36.5,29.5,30.6,24.4,21.3,84,63,49,29.65,29.50,8,2,18,0.00
2013-3-2,41.3,35.8,28.1,24.8,21.3,18.8,74,56,46,29.65,29.59,7,2,15,0.00
2013-3-3,39.6,34.0,29.5,26.5,22.1,19.3,73,62,52,29.61,29.53,7,2,16,0.00
2013-3-4,37.7,32.8,29.1,22.3,18.0,14.6,65,54,42,29.72,29.56,11,6,29,0.00
2013-3-5,45.1,36.6,29.5,29.5,21.2,16.7,76,54,38,30.04,29.72,7,1,15,0.00
2013-3-6,37.9,34.7,30.9,31.0,28.4,23.6,84,78,60,30.10,30.03,10,3,23,0.00
2013-3-7,34.3,31.6,29.7,27.1,24.9,21.3,83,76,61,30.09,29.99,6,1,21,0.00
2013-3-8,40.5,33.2,29.2,28.3,24.3,17.2,84,71,48,30.14,29.95,4,1,13,0.00
2013-3-9,52.9,36.7,25.3,24.0,16.9,3.3,79,49,13,30.33,30.14,6,1,13,0.00
2013-3-10,45.2,33.6,20.0,26.8,22.5,14.8,82,65,43,30.39,30.27,5,1,11,0.00
2013-3-11,51.1,40.8,30.7,34.1,28.3,24.9,82,63,37,30.28,30.10,6,1,16,0.00
2013-3-12,54.8,48.0,38.9,48.6,42.6,33.4,86,82,69,30.11,29.67,9,3,21,0.00
2013-3-13,51.0,42.1,30.6,46.6,23.8,8.9,85,52,20,29.75,29.66,11,3,22,0.00
2013-3-14,34.9,29.8,21.5,19.4,8.4,-0.8,64,41,28,29.81,29.67,11,4,24,0.00
2013-3-15,39.6,28.6,17.8,22.7,5.1,-6.8,66,39,14,29.84,29.59,9,3,24,0.00
2013-3-16,37.2,31.8,25.7,20.2,6.4,-1.9,58,36,20,29.85,29.62,7,2,17,0.00
2013-3-17,35.2,27.6,18.8,13.2,2.6,-9.6,72,39,14,30.28,29.85,11,3,25,0.00
2013-3-18,37.9,27.0,14.3,22.2,-2.6,-14.9,77,31,10,30.43,30.22,5,1,11,0.00
2013-3-19,32.8,30.3,25.8,28.6,25.9,21.1,85,84,78,30.23,29.62,10,2,18,0.00
2013-3-20,36.9,29.4,24.1,20.5,17.7,12.2,81,63,38,29.78,29.67,10,2,23,0.00
2013-3-21,38.9,28.5,17.2,21.8,13.6,6.0,79,57,27,29.78,29.57,3,0,8,0.00
2013-3-22,40.2,32.1,24.4,20.7,13.2,5.2,79,47,26,29.69,29.58,9,3,23,0.00
2013-3-23,41.5,33.9,24.8,17.2,12.3,6.7,67,43,24,29.74,29.60,14,5,31,0.00
2013-3-24,45.5,38.0,31.9,21.5,16.6,13.9,59,42,29,29.78,29.70,11,4,20,0.00
2013-3-25,43.3,35.5,26.7,26.3,22.5,19.0,74,60,48,29.75,29.50,9,2,18,0.00
2013-3-26,49.2,40.0,34.0,23.7,17.2,5.6,61,43,18,29.75,29.53,8,2,17,0.00
2013-3-27,52.6,40.8,25.5,26.4,17.2,10.9,73,42,20,29.85,29.71,11,3,21,0.00
2013-3-28,49.3,42.0,34.7,30.6,26.9,21.0,81,57,34,29.98,29.84,5,1,14,0.00
2013-3-29,55.7,43.5,30.1,29.3,25.4,16.1,79,52,23,30.02,29.94,8,1,16,0.00
2013-3-30,55.3,44.9,33.4,28.7,15.4,-0.8,75,38,11,30.06,29.97,11,2,21,0.00
2013-3-31,58.9,43.0,25.0,35.2,18.0,5.7,74,43,12,30.09,29.75,10,2,22,0.00
2013-4-1,60.9,45.3,34.6,38.8,29.3,-0.5,85,58,20,29.76,29.46,15,4,30,0.00
2013-4-2,38.6,33.3,27.2,8.2,3.5,-2.8,42,29,17,29.89,29.74,15,6,33,0.00
2013-4-3,44.8,35.9,27.9,9.7,0.6,-12.2,42,25,9,30.10,29.88,13,6,28,0.00
2013-4-4,54.7,41.5,27.6,14.8,4.9,-6.1,49,25,9,30.26,29.99,8,2,18,0.00
2013-4-5,59.9,46.2,36.9,24.4,16.3,-2.6,60,34,8,29.99,29.60,10,3,22,0.00
2013-4-6,45.2,35.5,28.4,17.4,1.9,-18.6,49,27,6,30.30,29.83,14,4,26,0.00
2013-4-7,55.4,40.1,23.9,33.9,18.0,6.3,68,44,14,30.30,29.95,15,3,32,0.00
2013-4-8,64.5,51.1,39.0,38.4,30.7,19.3,83,51,18,30.05,29.91,8,2,16,0.00
2013-4-9,68.0,55.2,44.9,45.3,37.2,32.0,81,54,27,30.04,29.82,11,2,21,0.00
2013-4-10,59.6,50.6,44.9,47.1,42.6,37.7,84,75,55,29.97,29.82,4,0,9,0.03
2013-4-11,50.7,45.8,39.6,44.5,31.7,15.3,85,61,28,30.11,29.81,8,2,14,0.09
2013-4-12,40.6,36.2,34.1,31.9,28.7,21.9,85,75,47,30.16,29.80,10,2,20,0.60
2013-4-13,51.3,42.1,34.3,35.6,31.3,28.2,85,68,41,29.90,29.75,7,1,14,0.11
2013-4-14,51.7,44.5,34.3,34.6,26.2,17.2,79,52,28,30.18,29.88,11,3,29,0.00
2013-4-15,58.6,43.2,28.4,32.9,25.5,-99.9,81,54,24,30.35,30.18,7,1,21,0.00
2013-4-16,66.3,51.7,37.0,47.0,36.3,29.1,78,58,32,30.36,30.01,13,3,28,0.00
2013-4-17,65.0,56.9,46.7,48.0,26.7,12.3,70,35,13,30.29,30.01,10,3,21,0.00
2013-4-18,62.8,50.1,34.0,38.3,25.1,15.7,75,42,20,30.41,30.11,11,4,24,0.00
2013-4-19,75.0,63.1,51.7,57.6,51.3,38.3,84,66,45,30.11,29.57,11,4,26,0.00
2013-4-20,67.5,52.3,42.0,58.8,32.4,13.5,84,51,21,30.18,29.55,10,4,24,0.41
2013-4-21,53.6,42.1,30.6,24.5,12.3,0.7,63,33,13,30.65,30.18,10,2,20,0.00
2013-4-22,51.6,41.0,29.2,28.0,22.8,12.2,78,52,22,30.73,30.58,10,3,20,0.00
2013-4-23,40.8,38.3,35.0,36.0,31.5,-99.9,84,78,66,30.58,30.13,4,1,14,0.00
2013-4-24,75.7,57.1,40.5,44.9,36.9,22.1,85,55,14,30.13,29.73,8,2,22,0.00
2013-4-25,62.9,54.1,40.9,48.1,27.1,9.9,81,41,13,30.24,29.77,12,4,23,0.00
2013-4-26,60.9,48.1,31.8,32.8,26.8,19.0,79,47,21,30.39,30.24,7,2,21,0.00
2013-4-27,65.3,51.1,34.1,33.2,28.1,21.0,82,46,19,30.39,30.24,6,0,13,0.00
2013-4-28,67.8,47.7,36.5,35.6,31.4,22.5,80,57,18,30.31,30.24,5,0,11,0.00
2013-4-29,69.8,57.4,44.2,40.2,28.4,14.8,65,36,19,30.23,30.13,7,1,17,0.00
2013-4-30,69.3,58.5,45.7,33.0,17.0,5.7,56,23,9,30.32,30.21,7,1,14,0.00
2013-5-1,71.5,54.6,35.5,31.2,23.9,-99.9,77,37,13,30.43,30.32,7,1,17,0.00
2013-5-2,79.1,55.3,39.5,39.0,31.4,19.4,76,46,11,30.46,30.29,11,1,24,0.00
2013-5-3,61.8,51.7,41.8,39.2,35.3,31.7,73,55,36,30.50,30.35,7,1,15,0.00
2013-5-4,63.1,50.8,38.5,40.7,31.5,9.2,83,53,13,30.35,30.25,8,2,17,0.00
2013-5-5,63.7,48.7,32.1,35.2,30.6,26.9,83,54,27,30.31,30.20,7,1,14,0.00
2013-5-6,72.5,53.3,33.5,44.0,34.2,20.4,83,55,15,30.25,30.09,5,1,16,0.00
2013-5-7,79.3,63.1,42.2,52.0,42.8,30.9,84,54,19,30.13,30.03,6,1,15,0.00
2013-5-8,74.1,63.2,52.2,57.2,52.6,46.9,82,70,46,30.16,30.01,9,2,20,0.01
2013-5-9,67.3,59.9,55.6,57.2,53.8,51.2,85,81,60,30.01,29.85,2,0,7,0.34
2013-5-10,79.6,65.2,52.8,56.8,50.7,41.4,87,64,26,29.92,29.84,4,0,10,0.00
2013-5-11,69.3,63.6,58.4,57.9,54.5,49.7,85,73,62,29.85,29.65,7,1,23,0.11
2013-5-12,69.6,59.8,45.2,56.8,43.6,17.4,86,59,23,29.76,29.52,2,0,8,0.02
2013-5-13,56.7,48.1,39.5,30.7,22.3,15.1,63,38,20,29.99,29.76,8,2,24,0.00
2013-5-14,58.4,48.0,36.2,29.7,24.0,14.8,74,43,19,30.03,29.94,7,1,21,0.00
2013-5-15,65.3,51.6,33.5,47.1,33.0,17.9,82,55,17,30.02,29.63,9,2,22,0.00
2013-5-16,80.0,65.7,46.1,46.3,30.1,13.0,84,38,9,29.77,29.59,15,3,30,0.00
2013-5-17,70.1,58.4,47.7,38.4,33.0,21.9,66,41,17,30.17,29.78,7,2,17,0.00
2013-5-18,73.7,57.7,39.6,42.5,33.9,19.8,82,48,14,30.27,30.17,5,0,14,0.00
2013-5-19,70.6,57.3,47.1,47.8,44.2,41.2,83,64,36,30.31,30.22,4,0,16,0.00
2013-5-20,81.1,67.4,55.3,58.7,54.8,50.9,86,67,42,30.17,29.87,4,0,14,0.03
2013-5-21,78.0,60.9,49.9,60.5,53.0,44.1,85,76,54,29.99,29.84,7,1,16,0.01
2013-5-22,65.3,55.5,49.9,55.3,49.5,44.9,86,80,69,30.04,29.85,4,0,14,1.16
2013-5-23,75.8,62.0,52.8,65.9,56.4,48.4,86,82,66,29.90,29.75,5,1,17,0.15
2013-5-24,71.5,61.6,47.6,62.3,54.6,42.4,86,78,58,29.80,29.59,6,1,17,0.19
2013-5-25,49.5,45.7,40.3,44.9,40.6,32.7,85,82,74,29.80,29.69,7,2,22,0.06
2013-5-26,56.3,47.6,39.2,35.5,33.2,29.9,81,59,37,30.06,29.68,10,3,25,0.00
2013-5-27,72.0,55.8,37.5,41.9,31.2,17.8,85,48,14,30.14,30.04,8,1,24,0.00
2013-5-28,73.9,58.7,40.5,46.4,37.3,25.7,84,52,17,30.21,30.11,5,0,13,0.00
2013-5-29,68.5,61.7,54.4,59.4,55.1,46.3,85,79,70,30.14,29.93,1,0,7,0.06
2013-5-30,88.5,74.7,61.2,63.3,58.8,51.2,86,62,29,30.03,29.95,6,1,17,0.00
2013-5-31,93.5,79.5,62.3,63.8,58.3,49.8,85,54,24,30.05,29.88,3,0,16,0.00
2013-6-1,92.4,79.8,65.8,67.1,58.6,46.3,81,54,21,29.92,29.79,5,1,18,0.03
2013-6-2,89.6,78.1,68.3,67.3,61.4,52.2,81,60,28,29.82,29.64,12,2,29,0.03
2013-6-3,79.3,68.8,57.8,63.2,56.7,39.1,86,68,35,29.80,29.70,5,0,15,0.18
2013-6-4,70.8,60.8,48.8,43.7,37.2,32.2,67,43,25,30.06,29.79,7,1,20,0.00
2013-6-5,73.9,62.1,46.4,47.4,40.5,29.4,83,50,20,30.15,30.04,2,0,10,0.00
2013-6-6,73.6,63.2,52.2,50.6,46.5,40.7,83,57,32,30.15,30.05,4,0,13,0.02
2013-6-7,58.1,54.3,51.6,51.6,49.3,47.2,85,83,76,30.07,29.81,3,0,13,1.42
2013-6-8,77.1,62.5,51.7,57.6,52.5,47.6,88,72,49,29.95,29.61,6,1,17,0.39
2013-6-9,78.5,67.1,53.6,54.8,50.3,43.4,86,59,30,30.12,29.95,7,0,15,0.00
2013-6-10,68.8,61.4,53.5,55.1,52.1,48.8,85,73,51,30.17,29.98,3,0,9,0.00
2013-6-11,61.0,57.1,54.4,53.2,51.8,50.0,86,82,71,29.98,29.55,4,0,16,0.00
2013-6-12,69.3,61.7,55.3,53.8,49.6,46.4,87,66,45,29.78,29.52,9,1,22,0.00
2013-6-13,66.3,56.8,49.5,54.0,49.5,44.9,85,77,55,29.78,29.67,2,0,11,0.18
2013-6-14,76.4,61.6,52.3,55.5,49.2,39.4,86,67,27,29.73,29.63,3,0,13,0.81
2013-6-15,78.3,66.5,51.7,50.4,41.0,27.4,79,45,16,29.89,29.73,5,1,15,0.00
2013-6-16,76.0,65.3,52.3,55.7,49.3,41.5,79,58,31,29.89,29.66,5,0,15,0.00
2013-6-17,83.5,68.4,58.3,59.3,53.7,-99.9,84,64,32,29.86,29.73,5,1,17,0.10
2013-6-18,70.8,61.4,56.2,58.0,54.9,51.7,87,80,58,29.92,29.84,2,0,8,0.64
2013-6-19,76.2,64.3,54.1,53.5,45.6,29.0,86,57,18,30.11,29.88,3,0,10,0.00
2013-6-20,79.1,65.0,47.7,52.0,44.0,34.4,85,52,21,30.23,30.11,6,0,14,0.00
2013-6-21,85.6,71.7,55.9,56.7,48.9,35.9,80,50,18,30.20,30.14,6,0,15,0.00
2013-6-22,84.2,72.9,60.2,59.8,56.0,51.6,84,58,34,30.17,30.05,5,1,15,0.00
2013-6-23,90.0,77.8,65.5,66.1,60.4,54.5,71,56,40,30.10,29.92,5,1,15,0.00
2013-6-24,93.3,80.3,69.5,66.2,62.9,53.8,82,59,27,29.96,29.82,6,1,15,0.04
2013-6-25,90.2,78.0,67.0,67.5,63.2,59.7,84,63,37,29.88,29.66,5,1,18,0.48
2013-6-26,80.8,72.7,67.1,68.2,65.0,62.4,87,77,58,29.81,29.68,1,0,7,0.08
2013-6-27,70.1,65.0,60.9,63.2,59.7,56.4,87,83,74,29.83,29.72,3,0,8,0.06
2013-6-28,77.4,66.1,57.3,69.1,60.7,53.0,87,83,70,29.73,29.42,5,1,14,0.80
2013-6-29,83.7,75.1,69.3,66.3,63.7,59.2,85,69,45,29.66,29.46,9,1,21,0.00
2013-6-30,85.4,76.2,66.8,66.2,63.9,61.6,85,67,47,29.88,29.66,7,1,17,0.00
2013-7-1,78.3,73.2,71.2,70.8,66.7,64.6,86,80,68,30.02,29.88,4,0,8,1.07
2013-7-2,81.7,71.1,60.4,70.3,64.5,55.9,87,80,62,30.17,30.01,5,1,13,0.02
2013-7-3,87.3,74.6,60.6,68.2,63.4,56.1,86,70,49,30.17,30.07,4,1,14,0.00
2013-7-4,91.5,82.5,72.4,69.5,66.9,62.7,83,61,39,30.15,30.03,4,1,13,0.00
2013-7-5,92.6,84.0,74.6,69.5,67.2,64.0,79,59,40,30.10,29.97,5,1,16,0.00
2013-7-6,89.4,81.6,71.5,69.2,63.6,54.0,80,56,32,30.02,29.93,5,1,15,0.00
2013-7-7,89.6,77.6,65.3,75.3,64.3,58.1,80,65,43,29.97,29.85,4,0,8,0.03
2013-7-8,85.4,75.1,66.3,69.8,65.9,60.6,84,74,51,30.03,29.86,7,1,17,0.30
2013-7-9,72.9,68.4,64.9,63.6,61.1,58.9,85,78,71,30.07,30.01,1,0,7,0.00
2013-7-10,82.1,71.9,65.3,73.0,65.6,60.2,86,81,63,30.03,29.74,3,0,13,0.28
2013-7-11,82.9,72.0,70.3,71.1,60.9,-99.9,86,77,57,29.89,29.72,5,0,10,0.11
2013-7-12,77.4,71.4,65.7,60.1,54.2,47.6,75,56,36,30.16,29.89,7,1,15,0.00
2013-7-13,79.1,71.2,64.9,67.4,60.5,53.3,84,69,60,30.27,30.16,2,0,7,0.01
2013-7-14,90.2,79.4,68.6,69.5,66.3,61.7,87,67,39,30.25,30.15,4,0,10,0.00
2013-7-15,92.0,80.8,69.3,69.3,66.0,60.1,86,64,37,30.16,30.04,3,0,11,0.00
2013-7-16,92.6,80.8,67.5,66.8,62.8,54.8,82,58,29,30.11,30.06,2,0,10,0.00
2013-7-17,93.7,82.4,69.5,67.8,64.8,60.0,85,58,34,30.13,29.92,2,0,10,0.00
2013-7-18,93.1,77.0,74.4,70.2,52.9,-99.9,79,58,36,29.96,29.88,5,0,11,0.00
2013-7-19,94.6,84.4,71.8,70.9,67.0,61.4,83,59,35,29.90,29.65,6,1,26,0.00
2013-7-20,91.1,81.9,72.0,70.8,63.2,55.4,70,54,40,29.76,29.60,5,0,20,0.00
2013-7-21,82.7,73.6,64.2,62.3,59.3,55.3,81,62,41,29.94,29.76,4,0,9,0.00
2013-7-22,81.5,72.1,65.7,65.5,61.7,-99.9,85,72,51,29.98,29.85,5,0,11,0.00
2013-7-23,77.1,70.1,67.3,69.5,63.0,-99.9,86,82,72,29.85,29.49,0,0,6,1.16
2013-7-24,84.4,74.9,62.8,68.4,60.6,46.9,86,63,41,29.93,29.53,5,1,15,0.00
2013-7-25,64.0,60.6,57.5,54.8,48.7,41.6,84,66,52,30.07,29.93,3,0,10,0.05
2013-7-26,73.9,64.9,59.6,64.9,58.8,54.8,86,81,64,30.04,29.90,2,0,13,0.38
2013-7-27,83.3,71.8,58.0,61.6,56.6,51.2,86,62,33,30.01,29.93,3,0,10,0.00
2013-7-28,81.3,70.5,62.9,65.4,61.4,57.9,85,74,52,29.98,29.92,5,0,13,0.06
2013-7-29,83.7,72.5,66.1,66.1,63.5,59.5,87,75,48,30.00,29.90,8,0,23,0.10
2013-7-30,81.9,71.4,58.9,63.7,53.6,42.8,86,58,26,30.05,29.98,6,1,14,0.00
2013-7-31,81.3,70.7,58.6,60.3,54.4,48.3,84,59,33,30.10,29.99,1,0,9,0.00
2013-8-1,80.0,68.6,58.9,61.8,58.0,54.1,86,70,45,30.00,29.83,7,0,15,0.05
2013-8-2,82.5,69.1,64.0,64.3,51.5,-99.9,86,65,27,29.83,29.74,5,0,16,0.64
2013-8-3,80.2,69.7,60.7,58.7,54.8,44.7,81,61,29,29.82,29.72,4,0,16,0.00
2013-8-4,78.2,66.8,56.0,54.9,51.2,46.6,82,60,33,29.85,29.73,4,0,16,0.00
2013-8-5,75.7,63.4,52.0,50.8,41.3,26.1,84,50,18,30.01,29.85,7,1,22,0.00
2013-8-6,77.6,63.7,48.3,49.8,44.5,-99.9,86,55,29,30.10,30.01,3,0,9,0.00
2013-8-7,78.5,66.9,52.9,56.9,49.4,41.0,86,57,27,30.15,30.05,7,1,17,0.00
2013-8-8,81.5,71.2,64.0,65.9,58.2,-99.9,81,68,57,30.07,29.95,6,1,16,0.01
2013-8-9,74.3,72.2,70.6,69.6,66.6,63.8,87,83,75,29.97,29.69,4,0,15,1.22
2013-8-10,82.5,71.7,61.8,66.2,55.7,-99.9,86,62,31,29.97,29.74,5,0,16,0.00
2013-8-11,79.6,66.9,52.9,58.3,51.3,43.6,90,62,29,30.04,29.95,3,0,10,0.00
2013-8-12,81.9,69.3,57.3,58.5,52.0,-99.9,89,61,31,29.98,29.87,4,0,10,0.00
2013-8-13,73.6,67.6,63.7,64.0,60.3,57.5,84,78,66,29.87,29.64,3,0,9,0.05
2013-8-14,73.6,65.9,57.5,59.6,49.0,43.6,85,57,35,29.91,29.62,8,1,22,0.00
2013-8-15,76.4,59.3,50.2,50.6,32.3,-99.9,86,52,29,30.07,29.91,5,0,17,0.00
2013-8-16,79.3,65.6,51.1,54.0,48.7,41.9,84,59,28,30.15,30.06,4,0,14,0.00
2013-8-17,80.8,67.1,51.9,56.8,51.8,47.2,86,61,33,30.24,30.15,2,0,8,0.00
2013-8-18,79.8,68.0,55.9,61.2,55.9,51.1,85,67,41,30.23,30.04,2,0,11,0.00
2013-8-19,81.3,70.2,57.5,58.9,55.4,50.6,86,62,36,30.04,29.90,3,0,14,0.00
2013-8-20,85.8,72.8,59.5,61.9,56.5,50.3,85,60,30,30.05,29.94,2,0,9,0.00
2013-8-21,87.1,74.0,59.9,61.7,57.8,52.7,85,61,32,30.10,29.98,4,0,11,0.00
2013-8-22,87.1,74.9,62.6,65.2,61.0,57.0,84,64,37,29.99,29.77,5,1,17,0.00
2013-8-23,79.8,72.4,62.3,64.0,50.8,39.3,79,50,25,30.09,29.77,4,1,14,0.00
2013-8-24,78.0,65.1,51.4,50.5,43.9,33.6,80,51,21,30.29,30.09,4,0,10,0.00
2013-8-25,81.3,66.8,49.2,52.4,46.8,35.8,84,54,20,30.33,30.13,4,0,14,0.00
2013-8-26,80.6,68.4,62.0,62.9,52.3,-99.9,84,65,49,30.13,29.82,4,0,14,0.07
2013-8-27,84.8,75.0,68.1,64.5,61.5,55.3,85,65,37,29.85,29.78,5,0,11,0.00
2013-8-28,85.4,73.3,62.0,63.5,60.1,57.1,86,66,41,29.93,29.80,3,0,10,0.00
2013-8-29,68.1,64.6,61.3,61.0,57.5,54.2,84,78,72,30.04,29.91,3,0,13,0.05
2013-8-30,83.7,70.3,57.0,62.8,58.1,52.2,86,67,42,30.00,29.76,3,0,11,0.00
2013-8-31,80.2,73.2,68.5,69.4,65.9,61.6,87,78,66,29.79,29.72,2,0,9,0.56
2013-9-1,83.1,75.2,69.8,69.2,66.5,64.7,85,75,56,29.83,29.73,6,0,13,0.08
2013-9-2,78.5,74.1,71.8,70.0,67.7,66.3,85,80,71,29.82,29.65,4,0,13,0.09
2013-9-3,80.6,71.1,59.6,67.8,61.8,53.4,87,74,50,29.76,29.65,3,0,10,0.03
2013-9-4,79.6,67.3,55.6,56.7,51.1,45.2,85,60,30,29.87,29.76,5,1,16,0.00
2013-9-5,70.0,62.2,51.4,56.0,44.7,30.6,79,57,25,30.12,29.81,4,0,14,0.00
2013-9-6,69.0,56.2,41.6,42.6,36.7,27.3,84,53,22,30.21,30.05,2,0,13,0.00
2013-9-7,78.9,63.7,48.8,56.7,45.9,34.7,78,56,21,30.05,29.80,4,0,10,0.01
2013-9-8,71.8,63.0,49.2,54.7,45.0,30.9,75,54,27,30.06,29.71,8,1,26,0.00
2013-9-9,70.0,56.2,40.2,45.4,38.0,32.0,83,55,25,30.20,30.06,5,0,13,0.00
2013-9-10,75.0,65.5,53.5,66.0,57.9,45.0,85,76,70,30.10,29.97,3,0,14,0.14
2013-9-11,93.3,80.7,68.0,70.6,65.9,59.8,86,64,37,30.01,29.88,11,1,23,0.03
2013-9-12,84.2,73.4,66.3,70.0,64.4,61.7,85,74,55,29.91,29.62,6,0,20,0.79
2013-9-13,75.7,67.4,58.9,65.3,58.5,48.4,86,74,54,29.72,29.52,5,0,14,0.05
2013-9-14,65.7,59.1,50.5,48.6,47.3,45.1,82,66,51,30.01,29.72,4,0,13,0.00
2013-9-15,70.6,57.8,44.2,48.6,43.5,35.5,86,63,30,30.12,30.00,4,0,10,0.00
2013-9-16,65.2,56.6,46.2,51.5,44.9,31.9,82,66,46,30.22,29.96,3,0,14,0.02
2013-9-17,62.8,50.2,36.6,42.0,34.6,30.2,82,58,31,30.40,30.22,4,0,11,0.00
2013-9-18,73.2,55.9,38.3,45.8,38.8,30.2,85,59,21,30.29,30.09,2,0,9,0.00
2013-9-19,77.4,60.7,43.6,52.3,44.5,-99.9,85,61,24,30.09,29.98,1,0,7,0.00
2013-9-20,78.9,62.7,46.5,52.2,47.8,41.9,85,62,30,30.05,29.95,2,0,9,0.00
2013-9-21,74.1,63.1,50.1,60.5,53.1,45.5,86,72,52,29.98,29.67,8,1,20,0.00
2013-9-22,69.8,63.2,53.0,62.3,50.4,37.4,85,65,38,29.80,29.55,6,1,18,0.58
2013-9-23,60.6,51.5,44.0,39.0,36.3,33.6,74,57,39,29.97,29.80,6,1,18,0.00
2013-9-24,66.1,52.5,38.2,40.1,35.9,30.9,84,57,27,29.96,29.78,6,1,20,0.00
2013-9-25,68.6,54.7,41.8,46.8,42.3,37.0,84,65,40,29.95,29.83,3,0,11,0.00
2013-9-26,67.0,58.2,52.6,47.9,43.8,38.7,77,61,39,30.09,29.95,2,0,10,0.00
2013-9-27,66.0,58.2,49.9,49.6,47.0,44.8,83,67,49,30.23,30.09,2,0,9,0.00
2013-9-28,73.0,57.0,43.6,51.2,45.7,39.4,85,68,39,30.30,30.22,3,0,13,0.00
2013-9-29,68.0,52.5,44.0,51.3,41.2,-99.9,86,71,32,30.23,30.08,3,0,9,0.00
2013-9-30,70.0,53.9,42.5,48.7,43.2,38.0,87,70,36,30.09,29.93,2,0,8,0.00
2013-10-1,77.3,59.4,42.3,52.8,45.1,38.1,85,64,30,29.93,29.80,4,0,13,0.00
2013-10-2,79.3,64.8,51.6,55.0,51.6,47.0,85,65,38,29.90,29.78,7,1,17,0.00
2013-10-3,77.1,62.8,49.6,51.9,45.1,32.4,84,58,20,30.04,29.90,4,0,10,0.00
2013-10-4,60.4,55.8,49.5,54.5,50.2,44.6,85,81,75,30.06,29.99,0,0,1,0.31
2013-10-5,67.5,61.0,55.1,53.7,51.7,48.6,86,73,56,30.08,30.02,2,0,7,0.00
2013-10-6,59.8,54.1,51.1,53.1,49.4,46.4,86,84,75,30.21,30.08,2,0,13,0.31
2013-10-7,76.5,62.4,54.4,66.6,56.4,50.3,87,81,60,30.11,29.74,8,1,26,0.26
2013-10-8,65.2,54.4,42.3,52.6,39.2,28.4,86,61,25,30.34,29.86,5,0,15,0.00
2013-10-9,63.6,48.6,37.9,41.7,37.3,33.0,84,67,39,30.46,30.34,3,0,10,0.00
2013-10-10,60.4,49.0,38.0,45.9,40.7,33.6,85,74,53,30.34,30.16,2,0,6,0.00
2013-10-11,71.2,55.9,43.6,45.4,39.4,13.5,86,61,11,30.16,30.06,3,0,9,0.00
2013-10-12,55.7,52.1,47.3,50.5,47.0,42.2,85,83,78,30.37,30.12,4,0,13,0.01
2013-10-13,58.7,49.8,40.6,49.2,42.3,36.0,86,76,55,30.42,30.35,3,0,9,0.01
2013-10-14,65.5,49.6,35.5,46.7,36.2,29.3,87,65,26,30.38,30.20,3,0,8,0.00
2013-10-15,65.2,56.5,51.3,49.2,46.6,42.6,82,70,53,30.23,30.14,2,0,8,0.00
2013-10-16,60.2,54.5,49.9,49.1,46.6,43.5,86,75,55,30.15,29.88,2,0,7,0.00
2013-10-17,74.6,58.1,46.4,55.9,45.6,37.6,86,68,27,29.88,29.66,4,0,15,0.00
2013-10-18,66.6,59.1,46.2,56.7,44.8,35.0,85,62,34,29.86,29.55,7,1,22,0.03
2013-10-19,67.0,53.1,38.9,42.3,35.8,31.3,82,56,28,29.93,29.70,4,0,15,0.00
2013-10-20,60.6,51.8,40.0,44.7,34.3,23.6,84,54,26,29.98,29.64,8,1,24,0.00
2013-10-21,66.8,49.8,33.8,36.9,32.8,28.9,83,56,27,30.08,29.95,4,0,15,0.00
2013-10-22,62.1,51.6,42.0,46.3,40.0,33.1,84,66,48,29.95,29.67,7,0,18,0.00
2013-10-23,51.0,43.3,32.6,33.1,29.6,25.7,83,61,38,29.76,29.55,1,0,8,0.00
2013-10-24,51.9,43.6,33.4,32.0,23.2,-99.9,77,48,25,29.84,29.60,6,1,22,0.00
2013-10-25,47.6,39.7,29.7,30.3,23.7,18.1,82,55,31,30.11,29.84,5,1,16,0.00
2013-10-26,53.2,40.8,28.2,29.3,22.4,13.2,83,54,21,30.11,29.83,7,1,23,0.00
2013-10-27,53.3,46.7,37.0,30.8,26.7,20.7,64,47,29,30.01,29.75,7,1,23,0.00
2013-10-28,57.3,43.6,31.6,28.9,25.5,19.5,77,52,25,30.31,30.01,7,1,22,0.00
2013-10-29,48.5,34.4,23.6,20.4,15.6,5.8,78,51,19,30.42,30.31,3,0,10,0.00
2013-10-30,52.2,37.0,27.8,32.8,25.7,17.0,80,64,46,30.35,30.16,3,0,11,0.00
2013-10-31,59.2,43.0,29.1,54.4,38.0,24.6,86,83,74,30.21,29.77,5,0,18,0.15
2013-11-1,68.0,62.8,53.5,58.6,52.9,48.1,83,71,53,29.78,29.39,5,0,13,0.07
2013-11-2,66.3,53.3,42.0,48.2,40.6,29.9,90,67,27,29.69,29.54,4,0,11,0.03
2013-11-3,48.8,39.7,30.0,42.5,18.5,-99.9,83,47,20,30.38,29.68,5,1,16,0.01
2013-11-4,42.5,31.3,23.0,15.5,10.8,2.6,67,45,20,30.68,30.38,4,0,8,0.00
2013-11-5,49.2,35.6,22.7,26.7,20.7,14.6,77,57,33,30.69,30.47,3,0,9,0.00
2013-11-6,61.0,49.0,36.6,43.0,35.3,26.3,76,60,39,30.49,29.99,6,1,16,0.00
2013-11-7,63.4,53.7,40.8,52.0,43.6,22.6,80,69,48,30.00,29.64,6,1,21,0.05
2013-11-8,46.7,38.4,29.4,27.1,19.5,14.3,64,47,35,30.05,29.76,9,2,21,0.01
2013-11-9,43.8,37.6,27.5,23.6,17.3,11.2,65,45,27,30.18,29.99,7,1,17,0.00
2013-11-10,53.6,44.0,37.0,39.2,29.9,23.1,84,59,42,29.99,29.69,8,1,20,0.04
2013-11-11,51.9,44.7,38.3,27.4,20.2,12.1,54,39,21,30.05,29.80,9,2,25,0.00
2013-11-12,47.6,34.7,26.7,33.9,17.0,9.1,78,49,37,30.15,29.83,9,2,21,0.03
2013-11-13,35.2,27.4,21.6,10.9,7.1,0.4,62,43,24,30.26,30.11,8,1,17,0.00
2013-11-14,51.4,37.9,26.7,20.3,14.2,7.5,62,40,20,30.11,29.99,6,1,17,0.00
2013-11-15,59.9,42.9,28.4,20.9,11.6,-1.9,64,33,8,30.15,30.05,4,0,11,0.00
2013-11-16,60.6,43.1,31.6,25.5,22.0,15.9,69,47,19,30.28,30.13,2,0,7,0.00
2013-11-17,45.9,38.9,29.0,40.9,31.9,21.8,85,76,69,30.28,29.82,1,0,6,0.03
2013-11-18,64.4,54.7,44.9,56.8,39.3,23.1,87,60,29,29.82,29.48,9,2,22,0.20
2013-11-19,48.2,38.3,30.3,24.5,14.7,8.5,47,38,28,30.25,29.61,11,5,25,0.00
2013-11-20,41.2,31.2,21.5,11.1,7.3,0.4,63,38,19,30.60,30.24,9,2,20,0.00
2013-11-21,47.6,31.8,16.6,23.3,13.1,-1.1,76,51,14,30.62,30.33,5,0,13,0.00
2013-11-22,42.8,40.6,36.7,38.6,34.7,23.3,86,80,58,30.33,29.77,0,0,2,0.19
2013-11-23,44.3,37.8,29.0,40.0,19.9,-4.5,87,51,23,29.90,29.74,11,3,26,0.00
2013-11-24,29.0,23.1,18.8,5.8,-6.1,-16.5,46,28,15,30.15,29.75,17,7,34,0.00
2013-11-25,32.1,24.0,14.0,7.4,-8.2,-28.5,37,25,7,30.34,30.15,8,1,21,0.00
2013-11-26,36.6,32.6,28.1,28.2,17.5,6.3,83,55,34,30.30,30.03,2,0,11,0.16
2013-11-27,60.1,46.1,32.8,55.9,41.5,26.3,87,84,65,30.03,29.19,10,2,28,1.85
2013-11-28,37.0,29.5,21.1,27.1,8.3,-6.3,69,43,20,30.39,29.39,14,4,28,0.00
2013-11-29,31.6,23.8,15.8,12.4,2.3,-16.7,71,43,13,30.71,30.39,8,1,18,0.00
2013-11-30,31.5,22.2,9.6,15.3,7.2,0.3,74,54,31,30.78,30.40,5,0,10,0.00
2013-12-1,34.6,31.9,28.7,30.6,24.7,15.3,85,75,56,30.40,29.99,1,0,6,0.17
2013-12-2,38.2,35.8,34.4,34.2,31.9,30.4,86,86,85,29.99,29.89,2,0,6,0.00
2013-12-3,49.2,37.7,29.8,33.5,29.1,24.3,86,73,41,29.91,29.82,3,0,9,0.00
2013-12-4,41.8,32.8,26.9,24.7,22.1,18.8,83,67,41,30.17,29.91,6,0,15,0.00
2013-12-5,38.6,34.6,26.7,34.8,29.4,21.4,86,81,73,30.18,29.87,5,0,8,0.02
2013-12-6,47.1,42.0,32.6,42.2,33.5,17.0,87,74,32,30.12,29.82,7,0,17,0.15
2013-12-7,38.2,31.7,23.0,32.4,21.7,12.1,85,68,42,30.41,30.05,9,2,20,0.18
2013-12-8,29.1,25.4,19.1,15.9,12.6,9.2,74,59,45,30.56,30.41,1,0,6,0.00
2013-12-9,33.7,29.5,24.1,29.4,23.4,9.6,86,79,47,30.47,29.85,4,0,8,0.01
2013-12-10,32.6,29.3,21.9,28.4,23.0,7.1,86,78,47,29.95,29.75,6,0,17,0.00
2013-12-11,31.3,24.2,18.1,14.0,11.2,8.8,72,59,39,30.15,29.95,8,1,22,0.00
2013-12-12,24.1,17.9,12.3,14.3,-0.3,-13.1,77,49,19,30.24,30.02,8,1,20,0.00
2013-12-13,27.6,18.9,11.3,15.7,4.8,-5.5,70,54,45,30.37,29.94,8,1,22,0.00
2013-12-14,15.1,11.1,7.1,8.6,-4.5,-13.5,76,50,32,30.59,30.17,2,0,13,0.00
2013-12-15,28.2,20.6,14.8,22.5,14.1,-99.9,81,78,73,30.17,29.42,5,1,14,0.00
2013-12-16,26.7,21.1,11.3,15.4,4.7,-5.0,75,51,25,30.17,29.69,9,2,25,0.00
2013-12-17,14.6,8.7,-3.8,8.7,-0.3,-11.7,77,66,45,30.25,29.96,3,0,10,0.00
2013-12-18,34.1,24.6,14.1,16.6,13.7,7.6,75,64,41,30.03,29.86,8,1,21,0.00
2013-12-19,41.6,31.2,24.5,20.1,17.3,14.5,69,57,35,30.07,29.91,5,1,17,0.10
2013-12-20,52.6,37.7,28.8,29.0,24.6,19.8,73,60,34,30.08,29.86,5,0,15,0.31
2013-12-21,58.0,45.2,34.6,40.7,34.2,27.0,79,66,46,29.90,29.80,2,0,8,0.09
2013-12-22,47.9,37.3,32.1,43.9,33.2,28.4,86,85,79,30.00,29.77,6,0,13,0.04
2013-12-23,36.2,32.6,31.0,32.7,29.0,27.3,87,86,86,30.06,29.94,2,0,8,0.54
2013-12-24,35.2,30.8,24.7,31.7,13.7,4.7,87,50,36,30.17,30.02,8,2,18,0.00
2013-12-25,24.7,17.5,11.8,8.0,-2.7,-8.7,59,41,26,30.51,30.17,8,2,20,0.00
2013-12-26,25.3,20.3,14.9,19.2,11.6,2.4,81,69,55,30.48,30.06,1,0,4,0.00
2013-12-27,33.2,25.7,18.0,16.6,14.4,12.6,81,63,44,30.23,30.15,5,0,18,0.05
2013-12-28,46.2,31.9,20.8,23.5,19.2,13.5,77,61,35,30.17,29.94,7,1,17,0.00
2013-12-29,40.2,33.4,27.0,31.8,26.0,20.4,85,75,54,29.98,29.43,6,0,13,1.06
2013-12-30,40.0,31.0,14.6,32.6,17.4,0.8,86,60,31,30.14,29.48,10,2,22,0.01
2013-12-31,23.6,16.0,8.9,8.0,-2.1,-11.0,72,45,31,30.14,29.99,5,0,11,0.00
2014-1-1,25.3,18.0,10.1,7.0,1.7,-3.3,67,50,28,30.35,30.14,8,1,23,0.00
2014-1-2,17.4,9.5,0.8,9.3,1.4,-7.3,74,69,64,30.34,29.87,2,0,14,0.00